Location: Bullenkuhlen
(53.7689°N, 9.7495°E)
Time: 04:15:34
(UTC+00:00)

SL-16 R/B - Pass Details

Date: 09 April 2020
Orbit: 842 x 846 km, 71.0° (Epoch: 01 June)

Event Time Altitude Azimuth Distance (km) Brightness Sun altitude
Rises 19:43:00 0° 322° (NW) 3,415 6.9 -13.0°
Reaches altitude 10° 19:46:10 10° 339° (NNW) 2,478 5.5 -13.4°
Maximum altitude 19:50:15 20° 26° (NNE) 1,875 4.1 -13.9°
Drops below altitude 10° 19:54:21 10° 72° (ENE) 2,475 4.3 -14.4°
Enters shadow 19:55:08 - 77° (ENE) 2,685 4.4 -14.5°
